FENGYUN 1C DEB, 39537

Orbit data source: Space-Track

FENGYUN 1C DEB, 39537 is space debris in SSO originally from a launch on Mon, 10 May 1999 UTC launched from the Taiyaun Space Center, China (TSC). Fengyun 1C debris stems from the Chinese weather satellite Fengyun-1C, which was intentionally destroyed by a Chinese anti-satellite missile in 2007. This event dramatically increased the amount of space debris, with thousands of trackable fragments posing hazards to satellites and human spaceflight. The Fengyun 1C debris cloud has become a focal point in discussions about space sustainability and the need for international regulations to prevent the creation of new debris.

Loading next visibility...
Identifier
39537, 1999-025EWE
Orbit
SSO
Country
Flag of CNCN / PRC
Related business
Manufacturer
Unknown
Mission
Spacecraft
Bus & Motor
Unknown
Mass
Unknown
Launch date (UTC)
1999-05-10 (27 years ago)
Launch vehicle
Unknown
Launch site
Taiyaun Space Center, China (TSC)
Object type
Payload
Rocket body
Debris
Shape & HBR
Unknown shape, 0.1 m
Radar Cross Section
Small (<0.1 m²)

Expand to show TLE details & history
Last TLE update: 2 days ago

TLE from 2 days ago
0 FENGYUN 1C DEB
1 39537U 99025EWE 26148.85981849  .00002371  00000-0  19006-2 0  9996
2 39537  99.1675 295.6235 0172950 252.8872 105.3279 13.85011320615694
Epoch: 2026-05-28T20:38Z
TLE epoch observation values (Epoch: 2026-05-28T20:38:08.317Z)
Latitude
-0.00005°
Longitude
99.69035°
Altitude
984.533 km
Speed
7.342 km/s
True Right ascension
19h 42m 29s
True Declination
0° 00' 00"
Sunlit
Object was in full shadow at epoch
Visualization orbit readout
Latitude
Unknown
Longitude
Unknown
Altitude
Unknown
Speed
Unknown
Apparent Right ascension
Unknown
Apparent Declination
Unknown
Sunlit
N/A
Visualization observer readout
Local Sidereal Time
21:46:40
Azimuth
Unknown
Elevation
Unknown
Doppler factor
Unknown
Orbital elements
Apogee altitude
1,070.018 km
Perigee altitude
816.766 km
Semi-major axis
7,321.529 km
Eccentricity
0.0173
Inclination
99.1675°
RAAN
295.6235°
Arg. of periapsis
252.8872°
True anomaly
107.22805°
Mean anomaly
105.3279°
Eccentric anomaly
106.2791°
Mean motion
3.4645 °/min
Orbital period
103.91 mins
BSTAR
0.0019006
Loading maneuver chart data...
Computing Atmospheric mass density...
Loading historical data...
Loading historical data...
Loading historical data...
Loading historical data...
Loading historical data...
Loading historical data...
Loading historical data...

Documentation

Showing up to 5 results
|